| time (UTC) | temp F | wind direction | speed MPH | gust MPH | rain 1hr in | rain 24hr in | rain mn in | humidity % | barometer mb |
| 20260508102700 | 34 | 53 | 2.0 | 2.0 | 0.00 | 0.00 | 0.00 | 98 | 1009.7 |
| 20260508102158 | 34 | 84 | 1.0 | 2.0 | 0.00 | 0.00 | 0.00 | 98 | 1009.9 |
| 20260508101655 | 34 | 81 | 2.0 | 2.0 | 0.00 | 0.00 | 0.00 | 98 | 1009.9 |
| 20260508101153 | 34 | 65 | 1.0 | 2.0 | 0.00 | 0.00 | 0.00 | 98 | 1010.0 |
| 20260508100650 | 34 | 67 | 2.0 | 2.0 | 0.00 | 0.00 | 0.00 | 98 | 1009.9 |
| 20260508100148 | 34 | 51 | 2.0 | 3.0 | 0.00 | 0.00 | 0.00 | 98 | 1009.9 |
| 20260508095644 | 34 | 71 | 2.0 | 2.0 | 0.00 | 0.00 | 0.00 | 98 | 1009.8 |
| 20260508095141 | 34 | 63 | 2.0 | 2.0 | 0.00 | 0.00 | 0.00 | 98 | 1009.8 |
| 20260508094638 | 34 | 71 | 1.0 | 2.0 | 0.00 | 0.00 | 0.00 | 98 | 1010.1 |
| 20260508094135 | 34 | 55 | 2.0 | 2.0 | 0.00 | 0.00 | 0.00 | 98 | 1009.8 |
| 20260508093632 | 34 | 82 | 1.0 | 2.0 | 0.00 | 0.00 | 0.00 | 98 | 1009.8 |
| 20260508093130 | 35 | 84 | 2.0 | 2.0 | 0.00 | 0.00 | 0.00 | 98 | 1010.0 |
| 20260508092627 | 35 | 54 | 2.0 | 2.0 | 0.00 | 0.00 | 0.00 | 98 | 1009.9 |
| 20260508092125 | 35 | 49 | 2.0 | 2.0 | 0.00 | 0.00 | 0.00 | 98 | 1010.0 |
| 20260508091622 | 35 | 82 | 2.0 | 2.0 | 0.00 | 0.00 | 0.00 | 98 | 1009.9 |
| 20260508091119 | 35 | 67 | 2.0 | 3.0 | 0.00 | 0.00 | 0.00 | 98 | 1010.0 |
| 20260508090617 | 35 | 83 | 1.0 | 2.0 | 0.00 | 0.00 | 0.00 | 98 | 1010.0 |
| 20260508090114 | 35 | 51 | 2.0 | 2.0 | 0.00 | 0.00 | 0.00 | 98 | 1010.1 |
| 20260508085610 | 36 | 86 | 1.0 | 2.0 | 0.00 | 0.00 | 0.00 | 98 | 1009.8 |
| 20260508085108 | 36 | 87 | 1.0 | 2.0 | 0.00 | 0.00 | 0.00 | 98 | 1010.0 |
| 20260508084604 | 36 | 95 | 1.0 | 2.0 | 0.00 | 0.00 | 0.00 | 98 | 1010.1 |
| 20260508084102 | 36 | 35 | 2.0 | 3.0 | 0.00 | 0.00 | 0.00 | 98 | 1010.3 |
| 20260508083558 | 36 | 35 | 2.0 | 3.0 | 0.00 | 0.00 | 0.00 | 98 | 1010.1 |
| 20260508083055 | 37 | 47 | 2.0 | 2.0 | 0.00 | 0.00 | 0.00 | 98 | 1010.0 |
| 20260508082551 | 37 | 47 | 2.0 | 2.0 | 0.00 | 0.00 | 0.00 | 98 | 1009.9 |
| 20260508082048 | 37 | 85 | 2.0 | 2.0 | 0.00 | 0.00 | 0.00 | 98 | 1010.1 |
| 20260508081546 | 37 | 95 | 1.0 | 2.0 | 0.00 | 0.00 | 0.00 | 98 | 1009.9 |
| 20260508081042 | 37 | 92 | 1.0 | 2.0 | 0.00 | 0.00 | 0.00 | 98 | 1010.1 |
| 20260508080540 | 37 | 80 | 1.0 | 2.0 | 0.00 | 0.00 | 0.00 | 98 | 1010.2 |
| 20260508080037 | 37 | 66 | 2.0 | 2.0 | 0.00 | 0.00 | 0.00 | 98 | 1010.3 |
| 20260508075533 | 37 | 69 | 2.0 | 3.0 | 0.00 | 0.00 | 0.00 | 98 | 1010.4 |
| 20260508075031 | 37 | 73 | 2.0 | 2.0 | 0.00 | 0.00 | 0.00 | 98 | 1010.3 |
| 20260508074529 | 37 | 97 | 2.0 | 2.0 | 0.00 | 0.00 | 0.00 | 98 | 1010.3 |
| 20260508074025 | 36 | 72 | 2.0 | 2.0 | 0.00 | 0.00 | 0.00 | 97 | 1010.6 |
| 20260508073523 | 36 | 58 | 2.0 | 2.0 | 0.00 | 0.00 | 0.00 | 97 | 1010.7 |
| 20260508073020 | 36 | 67 | 1.0 | 2.0 | 0.00 | 0.00 | 0.00 | 97 | 1010.6 |
| 20260508072516 | 37 | 80 | 1.0 | 2.0 | 0.00 | 0.00 | 0.00 | 97 | 1010.8 |
| 20260508072013 | 37 | 74 | 1.0 | 2.0 | 0.00 | 0.00 | 0.00 | 97 | 1010.5 |
| 20260508071511 | 37 | 77 | 1.0 | 2.0 | 0.00 | 0.00 | 0.00 | 97 | 1010.5 |
| 20260508071008 | 37 | 84 | 2.0 | 2.0 | 0.00 | 0.00 | 0.00 | 98 | 1010.7 |
| 20260508070506 | 37 | 96 | 2.0 | 2.0 | 0.00 | 0.00 | 0.00 | 97 | 1010.5 |
| 20260508070005 | 37 | 89 | 1.0 | 2.0 | 0.00 | 0.00 | 0.00 | 97 | 1010.6 |
| 20260508065502 | 37 | 80 | 2.0 | 2.0 | 0.00 | 0.00 | 0.00 | 97 | 1010.6 |
| 20260508065000 | 37 | 79 | 2.0 | 2.0 | 0.00 | 0.00 | 0.00 | 97 | 1010.7 |
| 20260508064457 | 38 | 92 | 2.0 | 2.0 | 0.00 | 0.00 | 0.00 | 97 | 1010.8 |
| 20260508063954 | 38 | 103 | 2.0 | 2.0 | 0.00 | 0.00 | 0.00 | 97 | 1010.6 |
| 20260508063451 | 38 | 91 | 1.0 | 2.0 | 0.00 | 0.00 | 0.00 | 97 | 1010.6 |
| 20260508062949 | 38 | 58 | 2.0 | 3.0 | 0.00 | 0.00 | 0.00 | 97 | 1010.7 |
| 20260508062447 | 38 | 51 | 3.0 | 3.0 | 0.00 | 0.00 | 0.00 | 97 | 1010.8 |
| 20260508061943 | 38 | 65 | 2.0 | 2.0 | 0.00 | 0.00 | 0.00 | 97 | 1010.7 |
| 20260508061442 | 38 | 54 | 2.0 | 3.0 | 0.00 | 0.00 | 0.00 | 97 | 1010.7 |
| 20260508060937 | 38 | 47 | 2.0 | 3.0 | 0.00 | 0.00 | 0.00 | 97 | 1010.8 |
| 20260508060435 | 38 | 59 | 2.0 | 3.0 | 0.00 | 0.00 | 0.00 | 97 | 1011.0 |
| 20260508055931 | 38 | 59 | 2.0 | 3.0 | 0.00 | 0.00 | 0.00 | 97 | 1010.8 |
| 20260508055428 | 38 | 57 | 2.0 | 2.0 | 0.00 | 0.00 | 0.00 | 96 | 1010.9 |
| 20260508054924 | 38 | 79 | 2.0 | 2.0 | 0.00 | 0.00 | 0.00 | 96 | 1010.6 |
| 20260508054422 | 38 | 51 | 3.0 | 3.0 | 0.00 | 0.00 | 0.00 | 96 | 1010.7 |
| 20260508053918 | 39 | 47 | 2.0 | 3.0 | 0.00 | 0.00 | 0.00 | 96 | 1010.6 |
| 20260508053415 | 39 | 85 | 2.0 | 2.0 | 0.00 | 0.00 | 0.00 | 96 | 1010.7 |
| 20260508052913 | 39 | 103 | 1.0 | 2.0 | 0.00 | 0.00 | 0.00 | 96 | 1010.5 |
| 20260508052410 | 39 | 110 | 1.0 | 2.0 | 0.00 | 0.00 | 0.00 | 96 | 1010.6 |
| 20260508051906 | 38 | 116 | 2.0 | 2.0 | 0.00 | 0.00 | 0.00 | 96 | 1010.5 |
| 20260508051402 | 38 | 101 | 2.0 | 2.0 | 0.00 | 0.00 | 0.00 | 96 | 1010.1 |
| 20260508050858 | 38 | 50 | 0.0 | 2.0 | 0.00 | 0.00 | 0.00 | 96 | 1010.2 |
| 20260508050355 | 39 | 49 | 2.0 | 2.0 | 0.00 | 0.00 | 0.00 | 96 | 1010.3 |
| 20260508045851 | 39 | 58 | 2.0 | 2.0 | 0.00 | 0.00 | 0.00 | 95 | 1010.3 |
| 20260508045349 | 39 | 71 | 1.0 | 2.0 | 0.00 | 0.00 | 0.00 | 95 | 1010.1 |
| 20260508044847 | 39 | 50 | 2.0 | 3.0 | 0.00 | 0.00 | 0.00 | 95 | 1010.3 |
| 20260508044343 | 39 | 37 | 2.0 | 2.0 | 0.00 | 0.00 | 0.00 | 95 | 1010.1 |
| 20260508043839 | 39 | 56 | 1.0 | 2.0 | 0.00 | 0.00 | 0.00 | 95 | 1010.0 |
| 20260508043337 | 39 | 79 | 1.0 | 2.0 | 0.00 | 0.00 | 0.00 | 95 | 1009.9 |
| 20260508042833 | 39 | 89 | 1.0 | 2.0 | 0.00 | 0.00 | 0.00 | 94 | 1010.3 |
| 20260508042331 | 40 | 84 | 1.0 | 2.0 | 0.00 | 0.00 | 0.00 | 94 | 1010.1 |
| 20260508041827 | 40 | 50 | 2.0 | 2.0 | 0.00 | 0.00 | 0.00 | 94 | 1010.1 |
| 20260508041324 | 40 | 48 | 3.0 | 3.0 | 0.00 | 0.00 | 0.00 | 94 | 1010.1 |
| 20260508040820 | 40 | 84 | 2.0 | 2.0 | 0.00 | 0.00 | 0.00 | 94 | 1010.1 |
| 20260508040317 | 40 | 61 | 1.0 | 2.0 | 0.00 | 0.00 | 0.00 | 93 | 1010.0 |
| 20260508035815 | 40 | 102 | 2.0 | 2.0 | 0.00 | 0.00 | 0.00 | 93 | 1010.0 |
| 20260508035312 | 41 | 98 | 1.0 | 2.0 | 0.00 | 0.00 | 0.00 | 93 | 1009.8 |
| 20260508034809 | 41 | 89 | 2.0 | 2.0 | 0.00 | 0.00 | 0.00 | 93 | 1010.0 |
| 20260508034306 | 41 | 52 | 2.0 | 2.0 | 0.00 | 0.00 | 0.00 | 92 | 1009.8 |
| 20260508033803 | 41 | 87 | 2.0 | 2.0 | 0.00 | 0.00 | 0.00 | 92 | 1009.7 |
| 20260508033301 | 41 | 83 | 1.0 | 2.0 | 0.00 | 0.00 | 0.00 | 91 | 1009.6 |
| 20260508032758 | 42 | 95 | 1.0 | 2.0 | 0.00 | 0.00 | 0.00 | 91 | 1009.7 |
| 20260508032255 | 42 | 55 | 2.0 | 3.0 | 0.00 | 0.00 | 0.00 | 90 | 1009.9 |
| 20260508031752 | 42 | 91 | 2.0 | 2.0 | 0.00 | 0.00 | 0.00 | 90 | 1009.5 |
| 20260508031248 | 43 | 52 | 2.0 | 3.0 | 0.00 | 0.00 | 0.00 | 89 | 1009.6 |
| 20260508030744 | 43 | 52 | 2.0 | 2.0 | 0.00 | 0.00 | 0.00 | 89 | 1009.6 |
| 20260508030242 | 43 | 38 | 2.0 | 2.0 | 0.00 | 0.00 | 0.00 | 88 | 1010.0 |
| 20260508025738 | 44 | 100 | 1.0 | 2.0 | 0.00 | 0.00 | 0.00 | 87 | 1009.9 |
| 20260508025236 | 44 | 66 | 2.0 | 2.0 | 0.00 | 0.00 | 0.00 | 86 | 1009.6 |
| 20260508024731 | 44 | 57 | 1.0 | 3.0 | 0.00 | 0.00 | 0.00 | 86 | 1009.7 |
| 20260508024229 | 45 | 63 | 2.0 | 2.0 | 0.00 | 0.00 | 0.00 | 85 | 1009.5 |
| 20260508023726 | 45 | 40 | 4.0 | 4.0 | 0.00 | 0.00 | 0.00 | 86 | 1009.9 |
| 20260508023223 | 45 | 58 | 2.0 | 2.0 | 0.00 | 0.00 | 0.00 | 85 | 1009.6 |
| 20260508022718 | 45 | 27 | 3.0 | 4.0 | 0.00 | 0.00 | 0.00 | 86 | 1009.5 |
| 20260508022216 | 45 | 83 | 2.0 | 2.0 | 0.00 | 0.00 | 0.00 | 87 | 1009.4 |
| 20260508021712 | 44 | 75 | 2.0 | 5.0 | 0.00 | 0.00 | 0.00 | 88 | 1009.5 |
| 20260508021208 | 44 | 29 | 2.0 | 3.0 | 0.00 | 0.00 | 0.00 | 87 | 1009.1 |
| 20260508020706 | 44 | 99 | 2.0 | 2.0 | 0.00 | 0.00 | 0.00 | 87 | 1009.0 |
| 20260508020202 | 45 | 70 | 2.0 | 2.0 | 0.00 | 0.00 | 0.00 | 85 | 1009.0 |
| 20260508015700 | 45 | 70 | 2.0 | 2.0 | 0.00 | 0.00 | 0.00 | 85 | 1008.8 |
| 20260508015157 | 45 | 64 | 1.0 | 2.0 | 0.00 | 0.00 | 0.00 | 84 | 1008.9 |
| 20260508014653 | 46 | 69 | 2.0 | 2.0 | 0.00 | 0.00 | 0.00 | 83 | 1009.0 |
| 20260508014149 | 46 | 52 | 2.0 | 2.0 | 0.00 | 0.00 | 0.00 | 81 | 1008.9 |
| 20260508013646 | 47 | 64 | 2.0 | 2.0 | 0.00 | 0.00 | 0.00 | 80 | 1008.8 |
| 20260508013142 | 48 | 79 | 2.0 | 2.0 | 0.00 | 0.00 | 0.00 | 79 | 1008.6 |
| 20260508012640 | 48 | 87 | 1.0 | 2.0 | 0.00 | 0.00 | 0.00 | 78 | 1008.8 |
| 20260508012137 | 48 | 80 | 2.0 | 3.0 | 0.00 | 0.00 | 0.00 | 77 | 1008.6 |
| 20260508011635 | 49 | 92 | 2.0 | 3.0 | 0.00 | 0.00 | 0.00 | 77 | 1008.4 |
| 20260508011132 | 49 | 82 | 2.0 | 4.0 | 0.00 | 0.00 | 0.00 | 76 | 1008.5 |
| 20260508010629 | 49 | 86 | 2.0 | 4.0 | 0.00 | 0.00 | 0.00 | 76 | 1008.7 |
| 20260508010127 | 49 | 66 | 3.0 | 3.0 | 0.00 | 0.00 | 0.00 | 75 | 1008.6 |
| 20260508005623 | 50 | 81 | 2.0 | 2.0 | 0.00 | 0.00 | 0.00 | 75 | 1008.7 |
| 20260508005120 | 50 | 59 | 2.0 | 2.0 | 0.00 | 0.00 | 0.00 | 73 | 1008.3 |
| 20260508004616 | 50 | 81 | 2.0 | 3.0 | 0.00 | 0.00 | 0.00 | 73 | 1008.4 |
| 20260508004113 | 51 | 62 | 2.0 | 3.0 | 0.00 | 0.00 | 0.00 | 72 | 1008.5 |
| 20260508003609 | 51 | 101 | 3.0 | 3.0 | 0.00 | 0.00 | 0.00 | 71 | 1008.4 |
| 20260508003107 | 51 | 92 | 1.0 | 2.0 | 0.00 | 0.00 | 0.00 | 71 | 1008.4 |
| 20260508002603 | 51 | 106 | 0.0 | 2.0 | 0.00 | 0.00 | 0.00 | 70 | 1008.5 |
| 20260508002101 | 51 | 59 | 1.0 | 3.0 | 0.00 | 0.00 | 0.00 | 70 | 1008.3 |
| 20260508001556 | 51 | 109 | 2.0 | 3.0 | 0.00 | 0.00 | 0.00 | 69 | 1008.2 |
| 20260508001053 | 52 | 54 | 2.0 | 3.0 | 0.00 | 0.00 | 0.00 | 68 | 1008.4 |
| 20260508000548 | 52 | 97 | 2.0 | 2.0 | 0.00 | 0.00 | 0.00 | 67 | 1008.5 |
| 20260508000046 | 52 | 44 | 2.0 | 4.0 | 0.00 | 0.00 | 0.00 | 66 | 1008.3 |
| 20260507235542 | 52 | 43 | 4.0 | 5.0 | 0.00 | 0.00 | 0.00 | 65 | 1008.4 |
| 20260507235040 | 53 | 60 | 2.0 | 4.0 | 0.00 | 0.00 | 0.00 | 63 | 1007.9 |
| 20260507234536 | 54 | 64 | 5.0 | 7.0 | 0.00 | 0.00 | 0.00 | 61 | 1008.2 |
| 20260507234032 | 55 | 106 | 6.0 | 6.0 | 0.00 | 0.00 | 0.00 | 58 | 1008.2 |
| 20260507233529 | 56 | 350 | 3.0 | 5.0 | 0.00 | 0.00 | 0.00 | 55 | 1008.1 |
| 20260507233028 | 58 | 49 | 6.0 | 11.0 | 0.00 | 0.00 | 0.00 | 51 | 1008.2 |
| 20260507232524 | 59 | 110 | 3.0 | 6.0 | 0.00 | 0.00 | 0.00 | 43 | 1007.9 |
| 20260507232021 | 60 | 245 | 2.0 | 2.0 | 0.00 | 0.00 | 0.00 | 43 | 1007.7 |
| 20260507231518 | 60 | 174 | 1.0 | 2.0 | 0.00 | 0.00 | 0.00 | 42 | 1007.8 |
| 20260507231015 | 61 | 248 | 3.0 | 9.0 | 0.00 | 0.00 | 0.00 | 40 | 1007.8 |
| 20260507230512 | 61 | 79 | 1.0 | 4.0 | 0.00 | 0.00 | 0.00 | 43 | 1007.8 |
| 20260507230008 | 60 | 9 | 3.0 | 4.0 | 0.00 | 0.00 | 0.00 | 42 | 1008.3 |
| 20260507225503 | 61 | 243 | 0.0 | 5.0 | 0.00 | 0.00 | 0.00 | 41 | 1007.9 |
| 20260507225000 | 62 | 342 | 2.0 | 4.0 | 0.00 | 0.00 | 0.00 | 40 | 1008.2 |
| 20260507224455 | 62 | 288 | 4.0 | 5.0 | 0.00 | 0.00 | 0.00 | 43 | 1008.4 |
| 20260507223952 | 60 | 275 | 0.0 | 3.0 | 0.00 | 0.00 | 0.00 | 45 | 1008.3 |
| 20260507223448 | 58 | 338 | 1.0 | 6.0 | 0.00 | 0.00 | 0.00 | 48 | 1008.2 |
| 20260507222946 | 59 | 279 | 3.0 | 3.0 | 0.00 | 0.00 | 0.00 | 47 | 1008.5 |
| 20260507222443 | 60 | 152 | 1.0 | 3.0 | 0.00 | 0.00 | 0.00 | 45 | 1008.3 |
| 20260507221939 | 60 | 66 | 0.0 | 4.0 | 0.00 | 0.00 | 0.00 | 46 | 1008.4 |
| 20260507221436 | 60 | 176 | 2.0 | 4.0 | 0.00 | 0.00 | 0.00 | 45 | 1008.6 |
| 20260507220932 | 61 | 262 | 4.0 | 5.0 | 0.00 | 0.00 | 0.00 | 44 | 1008.9 |
| 20260507220430 | 61 | 179 | 1.0 | 2.0 | 0.00 | 0.00 | 0.00 | 46 | 1008.5 |
| 20260507215926 | 60 | 98 | 0.0 | 3.0 | 0.00 | 0.00 | 0.00 | 46 | 1008.8 |
| 20260507215423 | 58 | 322 | 0.0 | 3.0 | 0.00 | 0.00 | 0.00 | 51 | 1008.6 |
| 20260507214920 | 58 | 118 | 1.0 | 4.0 | 0.00 | 0.00 | 0.00 | 49 | 1008.5 |
| 20260507214418 | 57 | 258 | 0.0 | 2.0 | 0.00 | 0.00 | 0.00 | 51 | 1008.8 |
| 20260507213913 | 55 | 163 | 2.0 | 5.0 | 0.00 | 0.00 | 0.00 | 54 | 1009.1 |
| 20260507213410 | 54 | 267 | 2.0 | 2.0 | 0.00 | 0.00 | 0.00 | 55 | 1009.2 |
| 20260507212907 | 52 | 352 | 1.0 | 6.0 | 0.00 | 0.00 | 0.00 | 67 | 1009.3 |
| 20260507212403 | 51 | 209 | 2.0 | 6.0 | 0.00 | 0.00 | 0.00 | 66 | 1009.0 |
| 20260507211859 | 51 | 135 | 3.0 | 4.0 | 0.00 | 0.00 | 0.00 | 66 | 1009.3 |
| 20260507211356 | 52 | 62 | 3.0 | 5.0 | 0.00 | 0.00 | 0.00 | 64 | 1009.3 |
| 20260507210853 | 53 | 92 | 1.0 | 5.0 | 0.00 | 0.00 | 0.00 | 65 | 1009.5 |
| 20260507210350 | 53 | 122 | 2.0 | 3.0 | 0.00 | 0.00 | 0.00 | 63 | 1009.2 |
| 20260507205847 | 53 | 47 | 0.0 | 4.0 | 0.00 | 0.00 | 0.00 | 58 | 1009.2 |
| 20260507205344 | 53 | 38 | 4.0 | 7.0 | 0.00 | 0.00 | 0.00 | 55 | 1009.4 |
| 20260507204840 | 53 | 44 | 1.0 | 2.0 | 0.00 | 0.00 | 0.00 | 59 | 1009.4 |
| 20260507204337 | 53 | 131 | 2.0 | 4.0 | 0.00 | 0.00 | 0.00 | 58 | 1008.9 |
| 20260507203835 | 54 | 44 | 1.0 | 4.0 | 0.00 | 0.00 | 0.00 | 55 | 1008.6 |
| 20260507203333 | 54 | 24 | 4.0 | 6.0 | 0.00 | 0.00 | 0.00 | 55 | 1008.4 |
| 20260507202828 | 55 | 353 | 2.0 | 5.0 | 0.00 | 0.00 | 0.00 | 52 | 1008.7 |
| 20260507202325 | 56 | 25 | 6.0 | 6.0 | 0.00 | 0.00 | 0.00 | 48 | 1008.6 |
| 20260507201820 | 58 | 297 | 4.0 | 6.0 | 0.00 | 0.00 | 0.00 | 42 | 1009.1 |
| 20260507201316 | 60 | 10 | 3.0 | 8.0 | 0.00 | 0.00 | 0.00 | 40 | 1008.8 |
| 20260507200813 | 60 | 164 | 2.0 | 4.0 | 0.00 | 0.00 | 0.00 | 38 | 1008.8 |
| 20260507200309 | 60 | 244 | 0.0 | 4.0 | 0.00 | 0.00 | 0.00 | 40 | 1008.8 |
| 20260507195805 | 58 | 109 | 4.0 | 4.0 | 0.00 | 0.00 | 0.00 | 44 | 1008.6 |
| 20260507195305 | 58 | 173 | 0.0 | 1.0 | 0.00 | 0.00 | 0.00 | 46 | 1008.9 |
| 20260507194800 | 57 | 44 | 0.0 | 3.0 | 0.00 | 0.00 | 0.00 | 45 | 1009.1 |
| 20260507194255 | 57 | 265 | 4.0 | 8.0 | 0.00 | 0.00 | 0.00 | 43 | 1009.3 |
| 20260507193752 | 57 | 107 | 0.0 | 4.0 | 0.00 | 0.00 | 0.00 | 46 | 1009.3 |
| 20260507193249 | 56 | 284 | 2.0 | 3.0 | 0.00 | 0.00 | 0.00 | 46 | 1009.6 |
| 20260507192745 | 56 | 118 | 0.0 | 3.0 | 0.00 | 0.00 | 0.00 | 45 | 1009.6 |
| 20260507192242 | 56 | 337 | 0.0 | 7.0 | 0.00 | 0.00 | 0.00 | 46 | 1009.7 |
| 20260507191738 | 56 | 260 | 2.0 | 4.0 | 0.00 | 0.00 | 0.00 | 46 | 1009.7 |
| 20260507191235 | 56 | 233 | 0.0 | 4.0 | 0.00 | 0.00 | 0.00 | 45 | 1009.6 |
| 20260507190732 | 56 | 308 | 1.0 | 3.0 | 0.00 | 0.00 | 0.00 | 45 | 1009.8 |
| 20260507190230 | 55 | 244 | 0.0 | 7.0 | 0.00 | 0.00 | 0.00 | 46 | 1009.7 |
| 20260507185729 | 55 | 86 | 1.0 | 2.0 | 0.00 | 0.00 | 0.00 | 49 | 1009.8 |
| 20260507185225 | 55 | 13 | 0.0 | 4.0 | 0.00 | 0.00 | 0.00 | 46 | 1009.9 |
| 20260507184723 | 56 | 336 | 0.0 | 3.0 | 0.00 | 0.00 | 0.00 | 48 | 1009.7 |
| 20260507184221 | 55 | 31 | 1.0 | 2.0 | 0.00 | 0.00 | 0.00 | 54 | 1010.0 |
| 20260507183717 | 55 | 2 | 2.0 | 3.0 | 0.00 | 0.00 | 0.00 | 52 | 1010.4 |
| 20260507183214 | 56 | 262 | 2.0 | 8.0 | 0.00 | 0.00 | 0.00 | 43 | 1010.4 |
| 20260507182711 | 58 | 271 | 2.0 | 5.0 | 0.00 | 0.00 | 0.00 | 37 | 1010.2 |
| 20260507182206 | 59 | 155 | 3.0 | 4.0 | 0.00 | 0.00 | 0.00 | 37 | 1009.9 |
| 20260507181703 | 60 | 162 | 2.0 | 2.0 | 0.00 | 0.00 | 0.00 | 37 | 1010.1 |
| 20260507181200 | 59 | 273 | 2.0 | 3.0 | 0.00 | 0.00 | 0.00 | 38 | 1010.3 |
| 20260507180656 | 58 | 142 | 0.0 | 2.0 | 0.00 | 0.00 | 0.00 | 37 | 1010.4 |
| 20260507180153 | 58 | 212 | 0.0 | 4.0 | 0.00 | 0.00 | 0.00 | 40 | 1010.7 |
| 20260507175649 | 58 | 272 | 2.0 | 4.0 | 0.00 | 0.00 | 0.00 | 40 | 1010.5 |
| 20260507175146 | 58 | 206 | 1.0 | 3.0 | 0.00 | 0.00 | 0.00 | 37 | 1010.4 |
| 20260507174643 | 58 | 232 | 1.0 | 3.0 | 0.00 | 0.00 | 0.00 | 37 | 1010.7 |
| 20260507174142 | 57 | 253 | 0.0 | 3.0 | 0.00 | 0.00 | 0.00 | 37 | 1011.0 |
| 20260507173638 | 57 | 336 | 0.0 | 5.0 | 0.00 | 0.00 | 0.00 | 38 | 1011.1 |
| 20260507173136 | 57 | 161 | 1.0 | 3.0 | 0.00 | 0.00 | 0.00 | 36 | 1011.2 |
| 20260507172632 | 58 | 218 | 2.0 | 6.0 | 0.00 | 0.00 | 0.00 | 36 | 1011.2 |
| 20260507172129 | 59 | 199 | 0.0 | 4.0 | 0.00 | 0.00 | 0.00 | 35 | 1011.3 |
| 20260507171624 | 59 | 86 | 0.0 | 3.0 | 0.00 | 0.00 | 0.00 | 34 | 1011.5 |
| 20260507171121 | 60 | 319 | 2.0 | 9.0 | 0.00 | 0.00 | 0.00 | 31 | 1011.4 |
| 20260507170618 | 60 | 256 | 3.0 | 6.0 | 0.00 | 0.00 | 0.00 | 35 | 1011.4 |
| 20260507170115 | 60 | 253 | 1.0 | 3.0 | 0.00 | 0.00 | 0.00 | 33 | 1011.6 |
| 20260507165611 | 61 | 170 | 2.0 | 2.0 | 0.00 | 0.00 | 0.00 | 32 | 1011.6 |
| 20260507165107 | 61 | 290 | 2.0 | 3.0 | 0.00 | 0.00 | 0.00 | 37 | 1011.7 |
| 20260507164603 | 60 | 150 | 2.0 | 2.0 | 0.00 | 0.00 | 0.00 | 35 | 1011.5 |
| 20260507164100 | 60 | 111 | 4.0 | 4.0 | 0.00 | 0.00 | 0.00 | 33 | 1012.0 |
| 20260507163558 | 59 | 195 | 0.0 | 3.0 | 0.00 | 0.00 | 0.00 | 35 | 1011.8 |
| 20260507163056 | 58 | 165 | 3.0 | 3.0 | 0.00 | 0.00 | 0.00 | 37 | 1012.2 |
| 20260507162555 | 58 | 182 | 2.0 | 4.0 | 0.00 | 0.00 | 0.00 | 38 | 1012.3 |
| 20260507162053 | 58 | 206 | 0.0 | 3.0 | 0.00 | 0.00 | 0.00 | 35 | 1012.3 |
| 20260507161549 | 58 | 141 | 3.0 | 4.0 | 0.00 | 0.00 | 0.00 | 34 | 1012.3 |
| 20260507161046 | 58 | 167 | 2.0 | 3.0 | 0.00 | 0.00 | 0.00 | 35 | 1012.3 |
| 20260507160542 | 58 | 267 | 1.0 | 3.0 | 0.00 | 0.00 | 0.00 | 34 | 1012.5 |
| 20260507160038 | 58 | 185 | 0.0 | 3.0 | 0.00 | 0.00 | 0.00 | 37 | 1012.6 |
| 20260507155534 | 57 | 14 | 0.0 | 2.0 | 0.00 | 0.00 | 0.00 | 36 | 1012.4 |
| 20260507155031 | 57 | 257 | 2.0 | 4.0 | 0.00 | 0.00 | 0.00 | 37 | 1012.8 |
| 20260507154528 | 57 | 258 | 2.0 | 3.0 | 0.00 | 0.00 | 0.00 | 34 | 1012.8 |
| 20260507154025 | 58 | 274 | 0.0 | 2.0 | 0.00 | 0.00 | 0.00 | 37 | 1012.7 |
| 20260507153522 | 57 | 125 | 2.0 | 4.0 | 0.00 | 0.00 | 0.00 | 35 | 1012.6 |
| 20260507153018 | 57 | 180 | 2.0 | 5.0 | 0.00 | 0.00 | 0.00 | 36 | 1012.9 |
| 20260507152513 | 56 | 182 | 0.0 | 2.0 | 0.00 | 0.00 | 0.00 | 40 | 1013.2 |
| 20260507152010 | 55 | 316 | 0.0 | 5.0 | 0.00 | 0.00 | 0.00 | 37 | 1013.3 |
| 20260507151507 | 54 | 127 | 1.0 | 3.0 | 0.00 | 0.00 | 0.00 | 41 | 1013.3 |
| 20260507151004 | 54 | 166 | 0.0 | 2.0 | 0.00 | 0.00 | 0.00 | 40 | 1013.4 |
| 20260507150500 | 54 | 46 | 2.0 | 4.0 | 0.00 | 0.00 | 0.00 | 42 | 1013.4 |
| 20260507145956 | 54 | 305 | 3.0 | 4.0 | 0.00 | 0.00 | 0.00 | 41 | 1013.5 |
| 20260507145452 | 53 | 243 | 0.0 | 6.0 | 0.00 | 0.00 | 0.00 | 42 | 1013.5 |
| 20260507144950 | 52 | 89 | 0.0 | 2.0 | 0.00 | 0.00 | 0.00 | 45 | 1013.9 |
| 20260507144446 | 52 | 271 | 3.0 | 4.0 | 0.00 | 0.00 | 0.00 | 43 | 1013.9 |
| 20260507143943 | 52 | 159 | 1.0 | 3.0 | 0.00 | 0.00 | 0.00 | 42 | 1013.9 |
| 20260507143441 | 51 | 157 | 0.0 | 3.0 | 0.00 | 0.00 | 0.00 | 44 | 1014.0 |
| 20260507142937 | 51 | 285 | 2.0 | 3.0 | 0.00 | 0.00 | 0.00 | 45 | 1014.3 |
| 20260507142433 | 51 | 276 | 1.0 | 2.0 | 0.00 | 0.00 | 0.00 | 45 | 1014.1 |
| 20260507141931 | 50 | 350 | 1.0 | 2.0 | 0.00 | 0.00 | 0.00 | 43 | 1014.2 |
| 20260507141426 | 51 | 140 | 2.0 | 2.0 | 0.00 | 0.00 | 0.00 | 45 | 1014.0 |
| 20260507140923 | 50 | 204 | 0.0 | 3.0 | 0.00 | 0.00 | 0.00 | 49 | 1013.9 |
| 20260507140420 | 49 | 240 | 0.0 | 1.0 | 0.00 | 0.00 | 0.00 | 49 | 1014.4 |
| 20260507135918 | 50 | 249 | 0.0 | 3.0 | 0.00 | 0.00 | 0.00 | 47 | 1014.2 |
| 20260507135414 | 49 | 120 | 2.0 | 3.0 | 0.00 | 0.00 | 0.00 | 48 | 1014.4 |
| 20260507134912 | 48 | 25 | 0.0 | 2.0 | 0.00 | 0.00 | 0.00 | 51 | 1014.3 |
| 20260507134408 | 47 | 103 | 0.0 | 2.0 | 0.00 | 0.00 | 0.00 | 51 | 1014.2 |
| 20260507133904 | 47 | 95 | 2.0 | 2.0 | 0.00 | 0.00 | 0.00 | 50 | 1014.0 |
| 20260507133400 | 46 | 130 | 0.0 | 1.0 | 0.00 | 0.00 | 0.00 | 52 | 1014.4 |
| 20260507132859 | 44 | 84 | 1.0 | 2.0 | 0.00 | 0.00 | 0.00 | 57 | 1014.3 |
| 20260507132354 | 44 | 11 | 0.0 | 2.0 | 0.00 | 0.00 | 0.00 | 56 | 1014.5 |
| 20260507131852 | 44 | 103 | 0.0 | 2.0 | 0.00 | 0.00 | 0.00 | 59 | 1014.4 |
| 20260507131349 | 43 | 86 | 1.0 | 2.0 | 0.00 | 0.00 | 0.00 | 59 | 1014.7 |
| 20260507130846 | 43 | 65 | 0.0 | 2.0 | 0.00 | 0.00 | 0.00 | 59 | 1014.4 |
| 20260507130342 | 42 | 83 | 0.0 | 2.0 | 0.00 | 0.00 | 0.00 | 60 | 1014.4 |
| 20260507125842 | 42 | 246 | 0.0 | 0.0 | 0.00 | 0.00 | 0.00 | 61 | 1014.7 |
| 20260507125338 | 42 | 76 | 0.0 | 1.0 | 0.00 | 0.00 | 0.00 | 63 | 1014.6 |
| 20260507124836 | 42 | 29 | 0.0 | 2.0 | 0.00 | 0.00 | 0.00 | 63 | 1014.5 |
| 20260507124332 | 42 | 66 | 0.0 | 2.0 | 0.00 | 0.00 | 0.00 | 65 | 1014.3 |
| 20260507123831 | 41 | 74 | 0.0 | 2.0 | 0.00 | 0.00 | 0.00 | 66 | 1014.3 |
| 20260507123327 | 41 | 89 | 0.0 | 2.0 | 0.00 | 0.00 | 0.00 | 69 | 1014.2 |
| 20260507122823 | 40 | 49 | 1.0 | 2.0 | 0.00 | 0.00 | 0.00 | 66 | 1014.2 |
| 20260507122319 | 40 | 69 | 0.0 | 2.0 | 0.00 | 0.00 | 0.00 | 69 | 1014.0 |
| 20260507121816 | 40 | 61 | 2.0 | 2.0 | 0.00 | 0.00 | 0.00 | 69 | 1014.2 |
| 20260507121311 | 41 | 34 | 1.0 | 1.0 | 0.00 | 0.00 | 0.00 | 69 | 1014.1 |
| 20260507120808 | 40 | 67 | 2.0 | 2.0 | 0.00 | 0.00 | 0.00 | 76 | 1014.1 |
| 20260507120304 | 38 | 81 | 2.0 | 2.0 | 0.00 | 0.00 | 0.00 | 82 | 1014.2 |
| 20260507115801 | 36 | 69 | 1.0 | 2.0 | 0.00 | 0.00 | 0.00 | 85 | 1014.2 |
| 20260507115256 | 35 | 55 | 2.0 | 2.0 | 0.00 | 0.00 | 0.00 | 87 | 1014.1 |
| 20260507114752 | 35 | 80 | 2.0 | 2.0 | 0.00 | 0.00 | 0.00 | 90 | 1014.1 |
| 20260507114250 | 34 | 83 | 2.0 | 2.0 | 0.00 | 0.00 | 0.00 | 91 | 1013.9 |
| 20260507113747 | 33 | 78 | 1.0 | 2.0 | 0.00 | 0.00 | 0.00 | 91 | 1014.1 |
| 20260507113243 | 32 | 71 | 2.0 | 2.0 | 0.00 | 0.00 | 0.00 | 91 | 1014.1 |
| 20260507112741 | 32 | 73 | 2.0 | 2.0 | 0.00 | 0.00 | 0.00 | 92 | 1013.9 |
| 20260507112238 | 32 | 64 | 2.0 | 2.0 | 0.00 | 0.00 | 0.00 | 92 | 1013.8 |
| 20260507111736 | 31 | 54 | 2.0 | 2.0 | 0.00 | 0.00 | 0.00 | 92 | 1014.0 |
| 20260507111232 | 31 | 66 | 2.0 | 2.0 | 0.00 | 0.00 | 0.00 | 92 | 1013.9 |
| 20260507110728 | 31 | 84 | 1.0 | 2.0 | 0.00 | 0.00 | 0.00 | 92 | 1014.0 |
| 20260507110225 | 30 | 49 | 2.0 | 2.0 | 0.00 | 0.00 | 0.00 | 92 | 1013.9 |
| 20260507105722 | 30 | 72 | 2.0 | 2.0 | 0.00 | 0.00 | 0.00 | 92 | 1013.7 |
| 20260507105218 | 30 | 53 | 2.0 | 2.0 | 0.00 | 0.00 | 0.00 | 92 | 1013.7 |
| 20260507104716 | 30 | 65 | 1.0 | 2.0 | 0.00 | 0.00 | 0.00 | 91 | 1013.7 |
| 20260507104212 | 30 | 74 | 2.0 | 2.0 | 0.00 | 0.00 | 0.00 | 91 | 1013.8 |
| 20260507103708 | 30 | 49 | 2.0 | 2.0 | 0.00 | 0.00 | 0.00 | 91 | 1013.9 |
| 20260507103205 | 30 | 79 | 2.0 | 2.0 | 0.00 | 0.00 | 0.00 | 91 | 1013.8 |